OAS8186 EDDB-GCLP

Flight info

Callsign OAS8186
Flight time N/A
Altitude 32000
Route LUROS4N LUROS Y211 BEBKU Z36 PIKIB Z715 ABKIS DCT PEROX DCT AMOSA N869 DKB DCT TEDGO/N0437F330 N869 NATOR DCT LUTIX DCT BENOT DCT NEMOS DCT NINTU DCT MEBAK DCT REPSI DCT LERGA DCT MINSO DCT NARAK DCT AGN DCT MAQAB DCT TIVLI N869 ZAR Z245 CJN N10 HIJ M30 OXACA N858 OSLEP N747 MINTA/N0459F350 DCT BAROK UN873 SAMAR
Aircraft A21N/M-SDE2E3FGHIJ1RWXY/LB1

Departure

Time 2026-05-01 10:31
Airport Berlin Brandenburg Airport (EDDB)

Arrival

Time N/A
Airport Gran Canaria Airport (GCLP)
Time Latitude Longitude Altitude Speed Heading
2026-05-01 09:25 52.36466 13.50532 160 ft 0 kts 69°
2026-05-01 10:16 52.36458 13.50500 159 ft 4 kts 69°
2026-05-01 10:16 52.36451 13.50468 159 ft 4 kts 69°
2026-05-01 10:16 52.36432 13.50389 158 ft 4 kts 74°
2026-05-01 10:17 52.36430 13.50348 157 ft 4 kts 112°
2026-05-01 10:17 52.36471 13.50302 156 ft 4 kts 160°
2026-05-01 10:17 52.36476 13.50299 156 ft 0 kts 159°
2026-05-01 10:23 52.36468 13.50304 156 ft 3 kts 164°
2026-05-01 10:23 52.36389 13.50277 155 ft 9 kts 161°
2026-05-01 10:23 52.36322 13.50321 155 ft 11 kts 158°
2026-05-01 10:24 52.36172 13.50417 155 ft 12 kts 159°
2026-05-01 10:24 52.36004 13.50523 155 ft 14 kts 159°
2026-05-01 10:25 52.35817 13.50640 154 ft 15 kts 159°
2026-05-01 10:25 52.35711 13.50766 154 ft 9 kts 71°
2026-05-01 10:26 52.35738 13.50880 157 ft 12 kts 69°
2026-05-01 10:26 52.35771 13.51021 157 ft 14 kts 68°
2026-05-01 10:26 52.35850 13.51348 157 ft 16 kts 69°
2026-05-01 10:27 52.35933 13.51699 157 ft 17 kts 69°
2026-05-01 10:27 52.36016 13.52053 157 ft 12 kts 69°
2026-05-01 10:28 52.36011 13.52171 158 ft 12 kts 149°
2026-05-01 10:28 52.35873 13.52262 163 ft 5 kts 159°
2026-05-01 10:28 52.35835 13.52272 164 ft 6 kts 209°
2026-05-01 10:29 52.35820 13.52225 164 ft 0 kts 248°
2026-05-01 10:30 52.35814 13.52202 164 ft 14 kts 248°
2026-05-01 10:30 52.35397 13.50447 163 ft 150 kts 249°
2026-05-01 10:31 52.34434 13.46664 988 ft 183 kts 245°
2026-05-01 10:31 52.32679 13.43509 2091 ft 199 kts 226°
2026-05-01 10:32 52.30805 13.39857 3138 ft 222 kts 232°
2026-05-01 10:32 52.29801 13.37852 3675 ft 231 kts 232°
2026-05-01 10:32 52.27728 13.33727 4954 ft 239 kts 231°
2026-05-01 10:33 52.25574 13.29446 6163 ft 249 kts 230°
2026-05-01 10:33 52.22741 13.26462 6479 ft 250 kts 182°
2026-05-01 10:34 52.20916 13.26630 6511 ft 275 kts 161°
2026-05-01 10:34 52.19297 13.28177 6831 ft 273 kts 130°
2026-05-01 10:34 52.18246 13.30739 7548 ft 272 kts 115°
2026-05-01 10:35 52.16559 13.36304 9018 ft 276 kts 114°
2026-05-01 10:35 52.15686 13.39107 9714 ft 278 kts 114°
2026-05-01 10:35 52.14795 13.41917 10398 ft 280 kts 114°
2026-05-01 10:35 52.13889 13.44740 10852 ft 292 kts 114°
2026-05-01 10:36 52.11879 13.50947 11353 ft 328 kts 114°
2026-05-01 10:36 52.10584 13.54130 11576 ft 350 kts 130°
2026-05-01 10:36 52.08575 13.56568 11791 ft 374 kts 149°
2026-05-01 10:37 52.06034 13.57896 12002 ft 396 kts 167°
2026-05-01 10:37 52.00432 13.56498 12609 ft 426 kts 204°
2026-05-01 10:37 51.99172 13.55327 12818 ft 429 kts 212°
2026-05-01 10:38 51.98455 13.54503 12956 ft 430 kts 215°
2026-05-01 10:38 51.98078 13.54045 13031 ft 431 kts 216°
2026-05-01 10:38 51.95666 13.51143 13490 ft 433 kts 213°
2026-05-01 10:38 51.93125 13.48484 13938 ft 436 kts 209°
2026-05-01 10:39 51.90490 13.46050 14378 ft 437 kts 207°
2026-05-01 10:39 51.87794 13.43720 14816 ft 440 kts 206°
2026-05-01 10:39 51.85070 13.41432 15262 ft 443 kts 205°
2026-05-01 10:39 51.82328 13.39150 15753 ft 445 kts 205°
2026-05-01 10:40 51.79561 13.36847 16228 ft 448 kts 205°
2026-05-01 10:40 51.76785 13.34532 16706 ft 451 kts 205°
2026-05-01 10:40 51.74937 13.32990 17023 ft 453 kts 205°
2026-05-01 10:40 51.71167 13.29850 17628 ft 457 kts 205°
2026-05-01 10:41 51.68336 13.27498 18078 ft 460 kts 205°
2026-05-01 10:41 51.65478 13.25124 18530 ft 463 kts 205°
2026-05-01 10:41 51.59760 13.20388 19328 ft 468 kts 205°
2026-05-01 10:42 51.57792 13.18768 19612 ft 470 kts 205°
2026-05-01 10:42 51.54878 13.16373 19997 ft 472 kts 205°
2026-05-01 10:42 51.50999 13.13179 20485 ft 475 kts 205°
2026-05-01 10:42 51.48044 13.10745 20849 ft 477 kts 205°
2026-05-01 10:43 51.45077 13.08313 21212 ft 480 kts 205°
2026-05-01 10:43 51.42100 13.05876 21598 ft 482 kts 205°
2026-05-01 10:43 51.39106 13.03422 21972 ft 484 kts 205°
2026-05-01 10:43 51.36098 13.00959 22324 ft 487 kts 205°
2026-05-01 10:44 51.34058 12.99292 22561 ft 488 kts 205°
2026-05-01 10:44 51.31027 12.96821 22908 ft 491 kts 205°
2026-05-01 10:44 51.27978 12.94337 23243 ft 493 kts 205°
2026-05-01 10:44 51.24914 12.91842 23574 ft 495 kts 205°
2026-05-01 10:45 51.21880 12.89379 23891 ft 497 kts 205°
2026-05-01 10:45 51.18794 12.86878 24193 ft 499 kts 205°
2026-05-01 10:45 51.15696 12.84370 24501 ft 501 kts 205°
2026-05-01 10:45 51.12585 12.81854 24797 ft 503 kts 205°
2026-05-01 10:46 51.09464 12.79337 25213 ft 501 kts 205°
2026-05-01 10:46 51.06357 12.76837 25620 ft 500 kts 205°
2026-05-01 10:46 51.03263 12.74350 26008 ft 499 kts 206°
2026-05-01 10:46 51.00167 12.71863 26392 ft 498 kts 206°
2026-05-01 10:47 50.97077 12.69386 26760 ft 497 kts 206°
2026-05-01 10:47 50.93995 12.66919 27141 ft 496 kts 206°
2026-05-01 10:47 50.90923 12.64462 27512 ft 494 kts 206°
2026-05-01 10:47 50.87849 12.62011 27848 ft 494 kts 206°
2026-05-01 10:48 50.84786 12.59567 28188 ft 493 kts 206°
2026-05-01 10:48 50.81727 12.57131 28544 ft 492 kts 206°
2026-05-01 10:48 50.78676 12.54708 28868 ft 491 kts 206°
2026-05-01 10:48 50.75628 12.52285 29183 ft 490 kts 206°
2026-05-01 10:49 50.72592 12.49880 29481 ft 489 kts 206°
2026-05-01 10:49 50.69549 12.47475 29772 ft 489 kts 206°
2026-05-01 10:49 50.66513 12.45080 30066 ft 488 kts 206°
2026-05-01 10:49 50.63481 12.42685 30342 ft 487 kts 206°
2026-05-01 10:50 50.60447 12.40292 30609 ft 487 kts 206°
2026-05-01 10:50 50.57456 12.37940 30843 ft 487 kts 206°
2026-05-01 10:50 50.54385 12.35528 31095 ft 487 kts 206°
2026-05-01 10:50 50.51359 12.33152 31337 ft 486 kts 206°
2026-05-01 10:51 50.48376 12.30811 31554 ft 486 kts 206°
2026-05-01 10:51 50.45351 12.28445 31749 ft 486 kts 206°
2026-05-01 10:51 50.42327 12.26085 31957 ft 486 kts 206°
2026-05-01 10:51 50.39298 12.23722 32165 ft 486 kts 206°
2026-05-01 10:52 50.36300 12.21287 32345 ft 486 kts 210°
2026-05-01 10:52 50.33545 12.18229 32497 ft 485 kts 221°
2026-05-01 10:52 50.31160 12.14516 32517 ft 485 kts 228°
2026-05-01 10:53 50.26635 12.06705 32479 ft 484 kts 229°
2026-05-01 10:53 50.22084 11.98946 32465 ft 484 kts 228°
2026-05-01 10:54 50.17511 11.91209 32482 ft 484 kts 228°
2026-05-01 10:54 50.12939 11.83496 32462 ft 485 kts 228°
2026-05-01 10:55 50.08358 11.75801 32462 ft 483 kts 228°
2026-05-01 10:55 50.03779 11.68138 32461 ft 484 kts 228°
2026-05-01 10:56 49.99195 11.60472 32459 ft 483 kts 228°
2026-05-01 10:56 49.94620 11.52811 32456 ft 485 kts 228°
2026-05-01 10:57 49.90020 11.45161 32450 ft 484 kts 228°
2026-05-01 10:57 49.85419 11.37544 32451 ft 484 kts 227°
2026-05-01 10:58 49.80810 11.29941 32452 ft 484 kts 227°
2026-05-01 10:58 49.76228 11.22413 32451 ft 483 kts 227°
2026-05-01 10:59 49.71626 11.14876 32441 ft 483 kts 227°
2026-05-01 10:59 49.67004 11.07321 32440 ft 483 kts 227°
2026-05-01 11:00 49.62390 10.99793 32439 ft 483 kts 227°
2026-05-01 11:00 49.57776 10.92290 32440 ft 482 kts 227°
2026-05-01 11:01 49.53172 10.84795 32437 ft 482 kts 227°
2026-05-01 11:01 49.48551 10.77344 32441 ft 481 kts 226°
2026-05-01 11:02 49.43863 10.69994 32439 ft 481 kts 226°
2026-05-01 11:02 49.39202 10.62624 32439 ft 480 kts 227°
2026-05-01 11:03 49.34610 10.55184 32440 ft 480 kts 226°
2026-05-01 11:03 49.29896 10.47923 32438 ft 480 kts 226°
2026-05-01 11:04 49.25163 10.40702 32438 ft 480 kts 225°
2026-05-01 11:04 49.20446 10.33466 32429 ft 480 kts 226°
2026-05-01 11:05 49.15767 10.26177 32421 ft 481 kts 226°
2026-05-01 11:05 49.11404 10.18448 32411 ft 481 kts 232°
2026-05-01 11:06 49.07217 10.10484 32411 ft 481 kts 232°
2026-05-01 11:06 49.03019 10.02559 32411 ft 481 kts 232°
2026-05-01 11:07 48.96733 9.90703 32405 ft 478 kts 232°
2026-05-01 11:07 48.92546 9.82849 32402 ft 479 kts 232°
2026-05-01 11:08 48.88339 9.74979 32401 ft 479 kts 232°
2026-05-01 11:09 48.82026 9.63221 32384 ft 479 kts 232°
2026-05-01 11:09 48.77808 9.55383 32374 ft 479 kts 231°
2026-05-01 11:10 48.71499 9.43717 32360 ft 479 kts 231°
2026-05-01 11:10 48.67270 9.35925 32349 ft 479 kts 231°
2026-05-01 11:11 48.63036 9.28145 32353 ft 479 kts 231°
2026-05-01 11:11 48.59059 9.20054 32347 ft 479 kts 236°
2026-05-01 11:12 48.55203 9.11866 32347 ft 478 kts 235°
2026-05-01 11:12 48.51342 9.03704 32342 ft 478 kts 235°
2026-05-01 11:13 48.47480 8.95560 32346 ft 477 kts 235°
2026-05-01 11:13 48.43611 8.87429 32349 ft 478 kts 235°
2026-05-01 11:14 48.39737 8.79313 32348 ft 477 kts 235°
2026-05-01 11:14 48.35861 8.71222 32351 ft 477 kts 235°
2026-05-01 11:15 48.31981 8.63140 32352 ft 476 kts 234°
2026-05-01 11:15 48.28097 8.55080 32365 ft 476 kts 234°
2026-05-01 11:16 48.24215 8.47034 32355 ft 475 kts 234°
2026-05-01 11:16 48.20329 8.39012 32357 ft 475 kts 234°
2026-05-01 11:17 48.16060 8.31461 32338 ft 476 kts 220°
2026-05-01 11:17 48.10649 8.25897 32348 ft 475 kts 212°
2026-05-01 11:18 48.05063 8.20608 32359 ft 475 kts 212°
2026-05-01 11:18 47.99495 8.15281 32343 ft 475 kts 212°
2026-05-01 11:19 47.93939 8.09936 32344 ft 475 kts 212°
2026-05-01 11:19 47.88378 8.04616 32356 ft 475 kts 212°
2026-05-01 11:20 47.82815 7.99306 32342 ft 475 kts 212°
2026-05-01 11:20 47.77248 7.94016 32342 ft 475 kts 212°
2026-05-01 11:21 47.71668 7.88744 32342 ft 474 kts 212°
2026-05-01 11:21 47.66108 7.83487 32337 ft 474 kts 212°
2026-05-01 11:22 47.60549 7.78221 32333 ft 474 kts 212°
2026-05-01 11:22 47.55000 7.72976 32323 ft 473 kts 212°
2026-05-01 11:23 47.49449 7.67759 32321 ft 473 kts 212°
2026-05-01 11:23 47.43889 7.62548 32318 ft 473 kts 212°
2026-05-01 11:24 47.38336 7.57358 32323 ft 473 kts 212°
2026-05-01 11:25 47.30010 7.49612 32320 ft 471 kts 212°
2026-05-01 11:25 47.21700 7.41888 32321 ft 471 kts 211°
2026-05-01 11:26 47.14118 7.32833 32324 ft 472 kts 230°
2026-05-01 11:27 47.10084 7.25323 32323 ft 471 kts 231°
2026-05-01 11:27 47.06024 7.17778 32327 ft 471 kts 231°
2026-05-01 11:28 47.01941 7.10285 32332 ft 470 kts 231°
2026-05-01 11:28 46.97845 7.02826 32341 ft 470 kts 230°
2026-05-01 11:29 46.91709 6.91674 32343 ft 468 kts 230°
2026-05-01 11:30 46.85583 6.80566 32352 ft 467 kts 230°
2026-05-01 11:30 46.81489 6.73180 32353 ft 467 kts 230°
2026-05-01 11:31 46.77405 6.65825 32344 ft 466 kts 230°
2026-05-01 11:31 46.73316 6.58485 32343 ft 466 kts 230°
2026-05-01 11:32 46.69228 6.51164 32340 ft 465 kts 229°
2026-05-01 11:32 46.65176 6.43910 32330 ft 464 kts 230°
2026-05-01 11:33 46.61102 6.36632 32321 ft 464 kts 229°
2026-05-01 11:33 46.57021 6.29376 32319 ft 463 kts 229°
2026-05-01 11:34 46.52939 6.22148 32320 ft 462 kts 229°
2026-05-01 11:34 46.49544 6.16146 32324 ft 462 kts 229°
2026-05-01 11:35 46.45438 6.08901 32318 ft 462 kts 229°
2026-05-01 11:35 46.41377 6.01762 32318 ft 461 kts 229°
2026-05-01 11:36 46.37300 5.94603 32325 ft 460 kts 229°
2026-05-01 11:36 46.33226 5.87474 32323 ft 460 kts 229°
2026-05-01 11:37 46.29145 5.80353 32323 ft 459 kts 228°
2026-05-01 11:37 46.25063 5.73248 32322 ft 459 kts 228°
2026-05-01 11:38 46.20985 5.66166 32312 ft 459 kts 228°
2026-05-01 11:38 46.16888 5.59077 32311 ft 459 kts 228°
2026-05-01 11:39 46.12996 5.51764 32312 ft 460 kts 233°
2026-05-01 11:39 46.09363 5.44185 32311 ft 460 kts 233°
2026-05-01 11:40 46.05730 5.36615 32309 ft 459 kts 233°
2026-05-01 11:40 46.02097 5.29068 32302 ft 459 kts 233°
2026-05-01 11:41 45.98451 5.21515 32298 ft 458 kts 234°